Regional Weather Roundup
Issued by NWS

Home | Current Version | Previous Version | Text Only | Print | Product List | Glossary On
Versions: 1 2 3 4 5 6 7 8 9 10 11 12 13 14 15 16 17 18 19 20 21 22 23 24 25 26 27 28 29 30 31 32 33 34 35 36 37 38 39 40 41 42 43 44 45 46 47 48 49 50
000
ASUS43 KDMX 052207
RWRIA

WEATHER ROUNDUP FOR IOWA
NATIONAL WEATHER SERVICE DES MOINES IA
400 PM CST THU MAR 05 2015

NOTE: "FAIR" INDICATES FEW OR NO CLOUDS BELOW 12,000 FEET WITH NO
SIGNIFICANT WEATHER AND/OR OBSTRUCTIONS TO VISIBILITY.

* - THESE STATIONS ARE NOT NWS STATIONS...THUS NOT UNDER NWS
QUALITY CONTROL.  THEY ALSO DO NOT REPORT WEATHER SUCH
AS PRECIPITATION OR FOG.

IAZ001>003-012>014-020>022-031>034-043>046-052300-
   NORTHWEST IOWA

CITY           SKY/WX    TMP DP  RH WIND       PRES   REMARKS
CARROLL *      SUNNY     23   1  39 SW9       30.43S WCI  13
CHEROKEE *     SUNNY     23   7  50 S12       30.39F WCI  12
DENISON *      SUNNY     25   3  39 SW13      30.39F WCI  13
LE MARS *      SUNNY     30   5  34 SW15      30.36F WCI  19
ORANGE CITY *  SUNNY     28   3  34 S12G18    30.34F WCI  18
SHELDON *      SUNNY     25   5  42 S15       30.33F WCI  12
SIOUX CITY     SUNNY     33   4  29 S14G24    30.37F WCI  23
SPENCER        SUNNY     22   5  48 S12       30.38F WCI  10
STORM LAKE *   SUNNY     21   3  45 SW12      30.39S WCI   9
$$

IAZ055>058-069>071-079>083-090>094-052300-
   SOUTHWEST IOWA

CITY           SKY/WX    TMP DP  RH WIND       PRES   REMARKS
ATLANTIC *     SUNNY     25   3  39 S9        30.44F WCI  15
AUDUBON *      SUNNY     25   1  36 SW6       30.43F WCI  18
CLARINDA *     SUNNY     28   1  31 VRB5      30.49S WCI  23
COUNCIL BLFS * SUNNY     28   7  40 S12       30.41F WCI  18
CRESTON *      SUNNY     23  -4  30 SW7       30.45F WCI  15
HARLAN  *      SUNNY     25   5  42 S10G17    30.46F WCI  15
LAMONI         SUNNY     23   2  40 CALM      30.47F
RED OAK *      SUNNY     28   1  31 S9G15     30.46S WCI  20
SHENANDOAH *   SUNNY     30   1  29 S10       30.46F WCI  21
$$

IAZ047>049-059>061-072>074-084-052300-
   CENTRAL IOWA

CITY           SKY/WX    TMP DP  RH WIND       PRES   REMARKS
AMES           SUNNY     16   1  51 S6        30.48F WCI   7
ANKENY *       SUNNY     19   1  45 SE6       30.50F WCI  11
CHARITON *     SUNNY     23   0  36 CALM      30.48F
DES MOINES     SUNNY     20  -1  40 CALM      30.49F
GRINNELL*      SUNNY     14   0  52 CALM      30.50F
KNOXVILLE *    SUNNY     19   0  42 W5        30.49S WCI  13
MARSHALLTOWN   SUNNY     11   0  61 CALM      30.49F
PELLA *        SUNNY     21   7  53 CALM      30.53S
PERRY *          N/A     21   5  49 CALM      30.47S
$$

IAZ004>006-015-016-023>025-035-036-052300-
   NORTH CENTRAL IOWA

CITY           SKY/WX    TMP DP  RH WIND       PRES   REMARKS
ALGONA *       SUNNY     19 N/A N/A SW12      30.42F WCI   7
CLARION *      SUNNY     16   5  62 SW7       30.45S WCI   6
ESTHERVILLE    SUNNY     18   4  54 S9        30.38F WCI   7
FORT DODGE *   SUNNY     18   3  53 S7        30.45S WCI   8
MASON CITY     SUNNY     13   3  64 S9        30.45F WCI   1
FOREST CITY *  SUNNY     18   1  49 S7        30.42F WCI   8
IOWA FALLS *     N/A     14   1  57 S7        30.48S HAZE    WCI   4
$$

IAZ007>011-017>019-026>030-037>042-050>054-066-052300-
   NORTHEAST IOWA

CITY           SKY/WX    TMP DP  RH WIND       PRES   REMARKS
CEDAR RAPIDS   SUNNY      9  -1  64 NW7       30.52S WCI  -2
CHARLES CITY * SUNNY     10  -2  56 VRB5      30.47F WCI   2
CLINTON *      SUNNY     10  -2  56 W13       30.56R WCI  -5
DECORAH *      SUNNY      9  -4  56 W7        30.46S WCI  -3
DUBUQUE        SUNNY      9  -4  55 W12       30.48S WCI  -6
MONTICELLO *   SUNNY     10  -2  56 W10       30.52S WCI  -3
OELWEIN *      SUNNY      9  -2  61 W8        30.49F WCI  -4
WATERLOO       SUNNY     10  -1  61 SW3       30.50F
$$

IAZ064-065-067-068-078-052300-
   EAST CENTRAL IOWA

CITY           SKY/WX    TMP DP  RH WIND       PRES   REMARKS
DAVENPORT      SUNNY     10  -3  55 NW9       30.54R WCI  -3
IOWA CITY      SUNNY     13  -2  51 NW8       30.56S WCI   2
MT. PLEASANT * SUNNY     18   0  45 CALM      30.55R
MUSCATINE *    SUNNY     14   0  52 CALM      30.57S
QUAD CITIES    SUNNY     13  -1  54 W9        30.55R WCI   1
$$

IAZ062-063-075>077-085>089-095>099-052300-
   SOUTHEAST IOWA

CITY           SKY/WX    TMP DP  RH WIND       PRES   REMARKS
BURLINGTON     SUNNY     15   1  53 N7        30.54S WCI   5
FAIRFIELD *    SUNNY     16   0  48 CALM      30.54R
FORT MADISON * SUNNY     16   1  53 NW6       30.56R WCI   7
KEOKUK *       SUNNY     18   1  49 VRB3      30.54S
OSKALOOSA *      N/A     18   3  53 NW6       30.52S WCI   9
CENTERVILLE *  SUNNY     23   3  42 S6        30.52R WCI  16
OTTUMWA        SUNNY     18   0  45 CALM      30.52R
WASHINGTON *   SUNNY     14   3  62 CALM      30.54S
$$

ABBREVIATIONS USED IN REMARKS
   TC - TEMPERATURES IN CELSIUS
  WCI - WIND CHILL INDEX
   HX - HEAT INDEX
  VSB - VISIBILITY
$$




USA.gov is the U.S. government's official web portal to all federal, state and local government web resources and services.